Wind_Speed
62 64 59 54 56 58 62 67 66 64 62 67 77 91 98 101 113 113 109 107 105 104 102 103 108 117 118 117 114 110 108 109 108 106 104 102 99 97 96 95 93 91 91 93
60 60 51 53 51 52 54 54 54 52 48 50 55 69 93 103 100 109 112 111 110 105 101 102 99 106 114 116 119 118 113 112 112 111 108 104 102 100 99 99 100 101 101 100
57 51 48 51 45 46 47 43 39 39 37 30 33 49 68 88 105 104 105 109 109 110 104 105 103 105 105 110 115 118 117 114 115 114 112 110 109 107 108 107 107 107 106 104
52 50 48 47 42 39 41 32 26 19 9 7 20 29 45 62 83 103 100 103 109 106 107 107 104 104 103 103 106 113 116 116 113 113 113 113 113 111 111 110 109 110 109 109
52 48 45 47 39 36 33 24 17 15 7 4 4 12 21 31 44 67 86 98 106 107 106 107 108 107 107 106 105 105 108 109 111 112 114 113 113 111 111 113 113 115 115 114
50 48 44 45 39 36 30 22 13 12 11 10 14 16 18 24 37 53 75 88 98 104 105 107 107 104 103 108 106 102 100 103 107 109 111 111 112 110 110 112 112 116 116 116
49 47 45 43 42 40 31 23 14 10 13 18 19 20 25 26 31 37 46 66 86 96 102 104 107 108 107 106 104 104 105 104 104 106 107 109 110 111 112 113 113 117 116 118
49 48 47 43 44 40 39 33 23 17 14 21 20 20 27 32 34 36 40 44 54 73 94 96 99 99 103 104 106 106 106 108 106 103 104 104 106 108 110 113 112 115 111 112
51 48 46 45 46 44 39 35 32 25 18 15 17 24 30 32 34 38 39 43 47 49 56 68 80 87 92 92 97 101 101 99 97 94 95 97 98 101 104 104 100 102 103 105
52 49 48 48 48 45 42 38 34 33 26 20 15 17 24 32 34 31 32 35 39 46 52 57 61 64 70 75 78 80 82 84 83 85 87 86 89 91 90 92 93 95 95 96
52 52 50 46 48 47 42 40 37 35 33 29 27 25 26 28 27 26 31 36 42 45 47 53 59 63 66 68 72 74 74 75 78 80 79 84 86 86 87 89 89 89 89 90
52 54 54 52 47 46 45 42 42 39 37 34 32 31 32 32 32 30 29 31 32 34 38 44 50 56 60 66 70 72 74 76 77 77 81 83 82 81 79 77 77 79 81 85
54 54 56 55 51 46 44 43 43 43 42 41 40 43 43 38 35 36 37 38 38 39 42 43 44 47 52 55 59 62 65 68 66 65 69 68 69 70 71 74 77 82 85 88
47 55 54 53 54 54 51 50 47 46 45 50 46 49 48 43 42 39 39 40 42 43 43 45 46 49 51 53 55 56 57 57 60 64 64 66 68 71 75 77 80 83 85 85
46 46 54 57 54 53 54 55 55 55 53 50 51 51 53 49 46 45 46 48 46 44 46 47 47 48 50 55 61 64 64 64 64 65 67 69 72 74 76 78 79 78 75 73
51 49 49 49 53 56 52 51 56 55 53 52 54 53 57 55 54 54 56 56 53 53 52 52 53 56 58 59 61 67 69 70 70 71 73 74 75 74 71 69 66 66 66 71
46 52 53 52 52 49 48 58 53 50 53 56 55 59 56 58 57 55 55 56 55 55 56 57 58 60 63 61 60 63 67 67 69 69 69 67 63 62 59 58 61 66 71 74
45 45 53 57 57 53 53 55 53 54 56 55 54 57 58 59 59 59 58 58 58 58 57 59 60 59 58 56 54 54 57 60 60 56 56 54 50 52 56 61 65 71 75 77
45 41 43 48 57 57 57 55 54 53 54 56 56 58 60 60 60 61 61 61 61 61 61 60 56 56 53 46 43 43 42 39 40 43 41 42 48 52 57 62 69 75 76 79
50 46 42 42 45 50 57 56 57 58 59 61 60 60 61 62 63 64 65 65 64 64 61 56 57 49 45 37 35 32 28 30 32 31 37 42 46 52 57 64 70 72 75 81
48 44 43 40 42 45 45 48 55 60 61 61 63 64 66 66 67 68 66 65 63 61 59 55 49 41 33 31 28 22 23 23 27 31 37 42 48 55 57 63 66 71 78 83
45 42 40 41 41 41 40 42 45 48 51 53 54 56 56 56 54 53 49 46 44 43 44 42 36 30 27 26 22 19 19 23 27 33 38 46 53 55 59 63 70 75 79 70
41 41 39 41 40 38 34 35 37 39 41 41 43 43 41 39 37 34 35 34 35 34 32 30 28 26 25 22 21 19 21 24 29 33 42 49 53 57 61 66 70 77 68 57
38 38 39 39 37 35 32 32 34 33 32 33 32 31 30 27 26 27 26 26 27 27 26 26 25 27 24 23 18 17 21 25 29 36 44 49 54 57 65 66 70 70 57 44
38 39 39 36 35 34 32 32 31 29 28 24 21 21 22 21 21 22 24 26 24 23 25 26 27 25 25 19 16 18 20 24 30 37 43 49 52 57 67 66 66 62 49 39
38 40 37 34 32 32 32 32 27 25 20 18 20 21 19 20 21 21 22 22 22 25 26 25 26 25 18 18 19 17 20 26 31 38 44 48 51 58 65 65 65 57 45 36
Wind_Direction
247 250 253 257 260 264 272 281 282 283 267 250 237 232 234 237 237 237 239 240 240 243 242 242 243 243 245 247 248 249 250 251 252 253 255 258 262 264 267 270 271 272 273 274
244 248 254 255 257 265 278 284 288 282 263 247 233 230 229 231 233 232 235 236 239 241 242 242 242 244 246 247 247 248 248 250 253 256 257 258 259 261 263 266 268 269 272 274
243 247 249 253 257 267 277 287 289 276 257 235 227 229 229 227 228 231 229 233 235 237 238 239 241 244 244 246 247 248 250 252 254 255 258 260 261 262 263 266 268 271 273 276
243 245 249 250 255 267 273 289 291 257 232 248 224 212 225 225 227 227 228 230 229 228 233 234 236 240 243 245 247 249 251 253 254 256 258 259 261 264 266 268 270 271 273 275
242 245 247 250 253 261 270 283 290 264 232 235 255 221 214 216 222 226 226 227 228 226 227 232 233 234 238 243 246 247 250 253 255 256 258 260 262 264 265 266 268 269 271 272
239 243 246 246 250 253 260 273 269 277 243 239 226 228 225 215 217 221 225 227 227 227 227 228 232 234 235 241 245 249 251 252 253 255 257 260 261 264 265 266 268 270 273 274
238 241 245 245 245 247 253 257 253 247 241 231 230 220 229 225 221 224 229 231 230 229 230 230 233 234 237 240 242 243 247 252 254 256 259 261 263 264 266 267 269 270 273 273
234 237 241 242 242 244 247 251 248 241 236 233 240 237 232 228 225 224 226 227 229 234 234 236 237 238 240 241 242 245 247 250 255 258 259 261 263 265 266 267 270 272 275 276
233 233 236 237 241 240 242 241 245 248 251 246 244 234 234 242 237 234 229 228 231 235 237 241 245 247 245 247 250 250 254 257 259 262 263 264 266 268 269 273 273 274 275 276
232 232 234 235 239 241 241 245 243 245 247 256 239 223 229 239 247 245 245 245 239 237 237 237 237 237 240 245 249 251 254 257 260 262 263 266 264 266 266 267 268 271 272 273
233 232 232 234 240 240 242 244 246 240 242 237 233 229 224 228 235 237 239 239 241 243 242 241 240 241 241 242 244 248 252 255 256 259 261 259 261 263 264 265 267 269 271 273
233 233 234 230 233 238 240 240 243 244 242 239 243 243 237 232 231 230 234 236 238 243 245 245 245 245 245 245 246 248 249 251 254 256 256 258 260 262 266 268 269 272 274 274
231 235 233 233 230 233 235 238 243 245 246 246 244 246 245 243 242 246 248 245 243 242 242 246 249 251 250 250 251 251 252 254 256 257 258 262 264 266 267 269 271 271 272 274
234 233 238 237 234 234 237 240 243 245 247 245 248 250 251 251 252 251 248 247 246 246 248 250 251 253 256 258 259 259 258 259 258 260 262 264 266 268 271 274 276 279 282 284
241 240 239 238 237 238 237 240 243 244 245 245 248 250 253 250 249 248 246 246 247 249 251 253 255 259 263 263 258 256 256 256 257 260 263 267 270 274 278 280 282 282 281 281
237 238 243 245 244 239 239 240 241 245 245 244 245 249 251 251 250 248 248 250 252 254 257 261 265 266 267 266 262 258 257 259 261 264 267 271 274 279 281 281 282 283 285 284
238 236 239 242 245 246 247 247 244 243 244 245 247 249 251 253 253 253 254 256 258 259 261 263 265 270 273 271 264 258 256 258 261 264 270 275 280 281 284 285 286 285 285 284
238 241 240 241 243 242 243 249 250 251 251 250 249 250 251 254 256 257 256 257 259 260 261 264 269 273 273 270 265 259 256 258 264 270 275 278 281 283 284 291 293 293 292 292
236 241 244 246 246 244 243 244 247 249 250 250 248 250 253 255 255 256 257 259 260 262 266 272 273 275 271 267 261 257 256 260 266 270 277 281 282 288 298 298 298 296 296 294
234 241 248 251 250 249 248 246 248 250 252 253 254 253 253 253 255 257 258 260 262 266 268 268 272 268 266 259 255 249 253 259 267 273 278 286 298 300 302 302 301 299 297 294
234 240 245 253 254 251 252 250 249 251 254 255 258 259 261 262 262 262 262 262 263 263 265 264 263 261 255 251 245 240 250 258 265 279 292 300 302 303 308 310 306 303 298 296
236 240 246 252 255 249 249 251 251 253 257 260 262 262 263 263 264 264 263 260 257 254 251 252 252 246 241 237 230 230 243 258 277 291 300 301 304 310 313 317 314 307 305 306
236 240 247 252 255 252 252 252 251 253 257 260 260 263 265 263 259 254 250 247 245 245 243 237 234 230 220 219 219 230 251 273 287 299 301 305 309 313 322 322 318 313 313 310
238 242 248 254 254 252 254 254 254 258 260 261 263 260 255 249 245 240 234 233 231 228 226 221 217 204 208 210 223 248 263 281 297 301 305 310 313 323 329 325 325 318 319 312
238 242 249 252 250 249 253 258 256 256 261 262 250 246 242 237 230 222 219 221 223 215 210 203 200 205 203 211 236 253 275 293 299 307 309 313 322 332 332 330 329 325 325 323
236 239 248 250 250 248 248 251 256 260 251 238 239 233 227 222 215 210 210 205 198 195 193 205 208 200 198 219 242 264 283 293 306 307 315 321 330 337 336 338 335 332 331 328
Height
10633 10634 10637 10643 10641 10636 10630 10623 10613 10605 10600 10598 10610 10619 10628 10639 10658 10670 10678 10698 10705 10714 10731 10740 10750 10757 10760 10769 10780 10788 10793 10792 10793 10796 10801 10808 10811 10813 10816 10818 10820 10821 10820 10821
10616 10619 10629 10626 10628 10622 10618 10611 10598 10586 10579 10578 10583 10595 10603 10619 10635 10648 10660 10674 10690 10704 10717 10723 10729 10734 10743 10750 10757 10763 10771 10772 10776 10783 10790 10796 10799 10799 10800 10802 10804 10804 10804 10806
10602 10611 10613 10610 10614 10613 10606 10602 10588 10577 10568 10565 10569 10579 10586 10601 10618 10631 10644 10655 10673 10685 10698 10704 10708 10714 10725 10729 10734 10741 10748 10754 10760 10767 10773 10775 10779 10783 10786 10787 10787 10787 10787 10788
10590 10597 10597 10600 10601 10602 10595 10593 10581 10573 10566 10565 10565 10568 10577 10589 10600 10615 10629 10642 10652 10662 10673 10683 10690 10695 10702 10713 10721 10724 10730 10739 10746 10749 10751 10754 10759 10764 10768 10768 10768 10767 10768 10768
10575 10583 10586 10586 10592 10591 10586 10584 10576 10571 10565 10565 10567 10569 10573 10579 10590 10601 10612 10620 10635 10645 10652 10660 10670 10676 10683 10690 10701 10710 10717 10723 10728 10733 10734 10735 10742 10748 10748 10746 10747 10746 10748 10750
10563 10568 10572 10575 10582 10580 10578 10577 10573 10569 10567 10567 10567 10570 10573 10577 10582 10587 10595 10608 10622 10632 10637 10644 10651 10660 10669 10675 10684 10697 10704 10707 10707 10710 10715 10721 10726 10728 10726 10724 10725 10724 10726 10727
10551 10557 10560 10566 10569 10570 10569 10569 10568 10567 10566 10566 10567 10569 10571 10576 10580 10585 10593 10600 10608 10616 10623 10628 10635 10646 10657 10665 10671 10674 10682 10688 10691 10696 10701 10706 10709 10709 10709 10705 10705 10704 10706 10705
10538 10543 10547 10554 10557 10560 10560 10561 10564 10563 10564 10564 10566 10571 10572 10572 10576 10581 10585 10591 10598 10602 10612 10622 10630 10638 10644 10650 10653 10659 10664 10669 10676 10683 10688 10690 10691 10691 10688 10688 10688 10686 10686 10682
10523 10531 10536 10540 10543 10548 10552 10554 10556 10560 10561 10563 10565 10568 10569 10571 10574 10577 10581 10585 10590 10599 10606 10614 10622 10629 10633 10636 10640 10644 10650 10654 10661 10667 10670 10671 10674 10670 10669 10670 10666 10665 10662 10660
10511 10518 10522 10528 10533 10538 10544 10547 10551 10554 10558 10561 10563 10565 10567 10567 10569 10574 10580 10585 10589 10593 10596 10600 10605 10610 10614 10620 10626 10630 10632 10638 10644 10647 10650 10655 10651 10651 10652 10650 10647 10645 10642 10638
10499 10505 10512 10519 10523 10529 10536 10541 10543 10547 10552 10555 10558 10561 10562 10564 10567 10571 10573 10577 10580 10585 10588 10592 10596 10599 10603 10608 10609 10614 10619 10624 10626 10629 10633 10631 10630 10632 10631 10629 10627 10623 10619 10616
10486 10491 10498 10505 10512 10518 10524 10530 10533 10538 10544 10548 10551 10555 10556 10558 10561 10565 10569 10571 10574 10577 10579 10582 10585 10589 10592 10594 10597 10601 10604 10606 10611 10615 10613 10614 10616 10615 10613 10609 10606 10603 10599 10595
10473 10479 10483 10492 10500 10506 10514 10519 10524 10529 10534 10539 10542 10541 10542 10550 10556 10560 10564 10566 10567 10569 10570 10573 10575 10576 10577 10579 10584 10587 10590 10594 10598 10597 10597 10599 10598 10597 10595 10593 10590 10584 10579 10575
10461 10469 10473 10479 10488 10495 10502 10507 10513 10519 10522 10523 10530 10528 10533 10541 10545 10550 10551 10553 10554 10556 10560 10562 10566 10568 10570 10572 10574 10576 10577 10580 10580 10581 10583 10583 10582 10580 10577 10574 10567 10562 10556 10550
10452 10456 10460 10465 10475 10482 10490 10495 10499 10503 10509 10516 10516 10521 10520 10528 10533 10536 10538 10539 10544 10548 10550 10552 10555 10557 10559 10561 10561 10561 10561 10562 10565 10566 10566 10566 10565 10562 10557 10552 10547 10540 10532 10526
10441 10447 10450 10455 10461 10470 10478 10481 10483 10492 10498 10504 10505 10508 10503 10511 10520 10523 10525 10529 10533 10536 10539 10541 10543 10543 10543 10544 10544 10545 10546 10548 10551 10551 10551 10550 10548 10543 10537 10532 10525 10519 10513 10506
10433 10438 10441 10446 10450 10459 10466 10461 10475 10481 10483 10487 10493 10491 10498 10497 10502 10508 10512 10515 10519 10522 10525 10527 10528 10528 10527 10526 10526 10527 10530 10534 10535 10537 10536 10533 10530 10524 10519 10513 10507 10499 10492 10483
10423 10428 10432 10435 10440 10450 10450 10454 10461 10465 10468 10474 10477 10478 10481 10484 10488 10492 10497 10499 10503 10506 10510 10512 10513 10512 10510 10509 10510 10511 10515 10518 10521 10521 10520 10518 10514 10507 10503 10495 10486 10477 10469 10460
10414 10418 10421 10424 10428 10436 10440 10445 10447 10452 10453 10456 10462 10465 10468 10471 10473 10476 10479 10483 10486 10490 10493 10495 10496 10496 10495 10496 10496 10498 10502 10506 10507 10507 10506 10503 10499 10494 10486 10477 10467 10456 10445 10433
10405 10410 10413 10416 10419 10421 10425 10433 10435 10437 10438 10440 10446 10450 10453 10456 10458 10460 10463 10466 10469 10474 10477 10478 10481 10482 10484 10484 10486 10489 10493 10495 10497 10497 10495 10491 10485 10478 10470 10460 10447 10433 10419 10405
10395 10401 10405 10408 10409 10410 10414 10418 10421 10423 10424 10427 10429 10433 10436 10439 10441 10443 10446 10449 10453 10457 10462 10463 10466 10470 10473 10475 10478 10481 10484 10487 10488 10487 10483 10479 10472 10464 10455 10442 10425 10411 10394 10376
10387 10393 10396 10400 10400 10401 10404 10406 10409 10410 10411 10413 10416 10417 10419 10422 10424 10426 10427 10431 10434 10439 10444 10450 10456 10461 10464 10468 10471 10474 10478 10480 10479 10477 10473 10467 10458 10450 10439 10422 10404 10384 10366 10350
10379 10384 10388 10390 10391 10391 10395 10397 10399 10400 10402 10404 10404 10406 10407 10409 10411 10413 10415 10419 10423 10428 10435 10441 10447 10452 10457 10461 10465 10469 10471 10472 10471 10468 10462 10454 10446 10437 10422 10405 10386 10362 10344 10330
10371 10375 10379 10381 10381 10383 10386 10387 10389 10391 10394 10395 10396 10396 10397 10399 10401 10404 10408 10412 10417 10422 10429 10434 10441 10446 10451 10455 10459 10463 10465 10465 10463 10458 10453 10446 10436 10423 10407 10389 10368 10344 10328 10316
10363 10366 10370 10372 10374 10375 10378 10378 10380 10384 10387 10388 10388 10388 10390 10393 10396 10399 10403 10408 10413 10418 10424 10430 10436 10441 10446 10451 10456 10458 10459 10457 10455 10451 10444 10437 10425 10412 10395 10375 10354 10332 10316 10305
10355 10358 10362 10365 10366 10368 10370 10370 10374 10377 10379 10381 10381 10383 10387 10390 10393 10396 10400 10405 10410 10415 10421 10426 10432 10437 10443 10448 10451 10452 10452 10451 10448 10442 10436 10426 10414 10400 10384 10364 10341 10324 10310 10299